This is the latest recevied weather packets stored in our database for station/object KB4MLW-13. If no packets are shown the sender has not sent any weather packets the latest 10 day(s).
| Time | Temp. | Humidity | Pressure | Rain* | Wind** | Luminosity | Snow |
|---|---|---|---|---|---|---|---|
| 1788189179 | 31.11° C | 71% | 1003.8 hPa | 0 mm | - | - | - |
| 1788189118 | 31.11° C | 74% | 1003.7 hPa | 0 mm | - | - | - |
| 1788189058 | 30.56° C | 72% | 1003.6 hPa | 0 mm | - | - | - |
| 1788188968 | 30.56° C | 73% | 1003.8 hPa | 0 mm | - | - | - |
| 1788188908 | 30° C | 72% | 1003.6 hPa | 0 mm | - | - | - |
| 1788188848 | 30° C | 73% | 1003.7 hPa | 0 mm | - | - | - |
| 1788188759 | 30° C | 76% | 1003.6 hPa | 0 mm | - | - | - |
| 1788188669 | 30° C | 75% | 1003.8 hPa | 0 mm | - | - | - |
| 1788188608 | 30° C | 75% | 1003.5 hPa | 0 mm | - | - | - |
| 1788188548 | 30° C | 75% | 1003.8 hPa | 0 mm | - | - | - |
| 1788188488 | 30° C | 74% | 1003.7 hPa | 0 mm | - | - | - |
| 1788188428 | 30.56° C | 73% | 1003.5 hPa | 0 mm | - | - | - |
| 1788188338 | 30.56° C | 74% | 1003.6 hPa | 0 mm | - | - | - |
| 1788188278 | 30.56° C | 73% | 1003.6 hPa | 0 mm | - | - | - |
| 1788188218 | 30.56° C | 75% | 1003.7 hPa | 0 mm | - | - | - |
| 1788188129 | 30.56° C | 74% | 1003.7 hPa | 0 mm | - | - | - |
| 1788188068 | 30° C | 76% | 1003.5 hPa | 0 mm | - | - | - |
| 1788188008 | 30° C | 74% | 1003.5 hPa | 0 mm | - | - | - |
| 1788187948 | 30° C | 74% | 1003.4 hPa | 0 mm | - | - | - |
| 1788187859 | 30° C | 74% | 1003.4 hPa | 0 mm | - | - | - |
| 1788187798 | 30° C | 74% | 1003.6 hPa | 0 mm | - | - | - |
| 1788187738 | 30° C | 75% | 1003.6 hPa | 0 mm | - | - | - |
| 1788187678 | 30° C | 75% | 1003.5 hPa | 0 mm | - | - | - |
| 1788187589 | 30° C | 73% | 1003.6 hPa | 0 mm | - | - | - |
| 1788187528 | 30° C | 75% | 1003.5 hPa | 0 mm | - | - | - |
* Rain latest hour (hover to see other rain measurements)
** Current wind speed in m/s (hover to see current wind gust speed)